ProjectID,Date,Electric Generation,Electric Utility Import,Facility Electric Load
,YYYY-MM-DD,kW,kW,kW
480,2011-09-01,0.0,,0.0
480,2011-09-02,0.0,,0.0
480,2011-09-03,0.0,,0.0
480,2011-09-04,0.0,,0.0
480,2011-09-05,0.0,,0.0
480,2011-09-06,0.0,,0.0
480,2011-09-07,0.0,,0.0
480,2011-09-08,0.0,,0.0
480,2011-09-09,0.0,,0.0
480,2011-09-10,0.0,,0.0
480,2011-09-11,0.0,,0.0
480,2011-09-12,0.0,,0.0
480,2011-09-13,0.0,,0.0
480,2011-09-14,0.0,,0.0
480,2011-09-15,0.0,,0.0
480,2011-09-16,0.0,,0.0
480,2011-09-17,0.0,,0.0
480,2011-09-18,0.0,,0.0
480,2011-09-19,0.0,,0.0
480,2011-09-20,0.0,,0.0
480,2011-09-21,0.0,,0.0
480,2011-09-22,0.0,,0.0
480,2011-09-23,0.0,,0.0
480,2011-09-24,0.0,,0.0
480,2011-09-25,0.0,,0.0
480,2011-09-26,0.0,,0.0
480,2011-09-27,0.0,,0.0
480,2011-09-28,0.041666666666666664,,0.041666666666666664
480,2011-09-29,0.0,,0.0
480,2011-09-30,0.041666666666666664,,0.041666666666666664
480,2011-10-01,0.041666666666666664,,0.041666666666666664
480,2011-10-02,0.0,,0.0
480,2011-10-03,0.041666666666666664,,0.041666666666666664
480,2011-10-04,0.041666666666666664,,0.041666666666666664
480,2011-10-05,0.041666666666666664,,0.041666666666666664
480,2011-10-06,0.0,,0.0
480,2011-10-07,0.041666666666666664,,0.041666666666666664
480,2011-10-08,0.041666666666666664,,0.041666666666666664
480,2011-10-09,0.041666666666666664,,0.041666666666666664
480,2011-10-10,0.0,,0.0
480,2011-10-11,0.041666666666666664,,0.041666666666666664
480,2011-10-12,0.041666666666666664,,0.041666666666666664
480,2011-10-13,0.0,,0.0
480,2011-10-14,0.041666666666666664,,0.041666666666666664
480,2011-10-15,0.041666666666666664,,0.041666666666666664
480,2011-10-16,0.0,,0.0
480,2011-10-17,0.041666666666666664,,0.041666666666666664
480,2011-10-18,0.041666666666666664,,0.041666666666666664
480,2011-10-19,0.0,,0.0
480,2011-10-20,0.041666666666666664,,0.041666666666666664
480,2011-10-21,0.0,,0.0
480,2011-10-22,0.041666666666666664,,0.041666666666666664
480,2011-10-23,0.041666666666666664,,0.041666666666666664
480,2011-10-24,0.0,,0.0
480,2011-10-25,0.041666666666666664,,0.041666666666666664
480,2011-10-26,0.0,,0.0
480,2011-10-27,0.041666666666666664,,0.041666666666666664
480,2011-10-28,0.041666666666666664,,0.041666666666666664
480,2011-10-29,239.75,,239.75
480,2011-10-30,299.95829166666664,,299.95829166666664
480,2011-10-31,332.7916666666667,,332.7916666666667
480,2011-11-01,349.91670833333336,,349.91670833333336
480,2011-11-02,350.041625,,350.041625
480,2011-11-03,349.916625,,349.916625
480,2011-11-04,350.04170833333336,,350.04170833333336
480,2011-11-05,350.0416666666667,,350.0416666666667
480,2011-11-06,349.79154166666666,,349.79154166666666
480,2011-11-07,350.5004166666667,,350.5004166666667
480,2011-11-08,350.041375,,350.041375
480,2011-11-09,350.04170833333336,,350.04170833333336
480,2011-11-10,349.91675000000004,,349.91675000000004
480,2011-11-11,350.0833333333333,,350.0833333333333
480,2011-11-12,349.9166666666667,,349.9166666666667
480,2011-11-13,350.0833333333333,,350.0833333333333
480,2011-11-14,350.0416666666667,,350.0416666666667
480,2011-11-15,349.9170833333333,,349.9170833333333
480,2011-11-16,350.0408333333333,,350.0408333333333
480,2011-11-17,349.20875,,349.20875
480,2011-11-18,349.875,,349.875
480,2011-11-19,350.0833333333333,,350.0833333333333
480,2011-11-20,350.0416666666667,,350.0416666666667
480,2011-11-21,349.875,,349.875
480,2011-11-22,348.3333333333333,,348.3333333333333
480,2011-11-23,350.0420833333333,,350.0420833333333
480,2011-11-24,349.9170833333333,,349.9170833333333
480,2011-11-25,350.0416666666667,,350.0416666666667
480,2011-11-26,349.9575,,349.9575
480,2011-11-27,214.37541666666667,,214.37541666666667
480,2011-11-28,0.0,,0.0
480,2011-11-29,0.0,,0.0
480,2011-11-30,0.0,,0.0
480,2011-12-01,245.5,,245.5
480,2011-12-02,399.8754166666667,,399.8754166666667
480,2011-12-03,400.0829166666667,,400.0829166666667
480,2011-12-04,400.0829166666667,,400.0829166666667
480,2011-12-05,399.9175,,399.9175
480,2011-12-06,400.04125,,400.04125
480,2011-12-07,400.0829166666667,,400.0829166666667
480,2011-12-08,399.8754166666667,,399.8754166666667
480,2011-12-09,400.0829166666667,,400.0829166666667
480,2011-12-10,399.87583333333333,,399.87583333333333
480,2011-12-11,399.87416666666667,,399.87416666666667
480,2011-12-12,400.25083333333333,,400.25083333333333
480,2011-12-13,400.0408333333333,,400.0408333333333
480,2011-12-14,399.9175,,399.9175
480,2011-12-15,400.04125,,400.04125
480,2011-12-16,399.8754166666667,,399.8754166666667
480,2011-12-17,400.0829166666667,,400.0829166666667
480,2011-12-18,400.0425,,400.0425
480,2011-12-19,399.87416666666667,,399.87416666666667
480,2011-12-20,400.0829166666667,,400.0829166666667
480,2011-12-21,400.0420833333333,,400.0420833333333
480,2011-12-22,399.8745833333333,,399.8745833333333
480,2011-12-23,400.0841666666667,,400.0841666666667
480,2011-12-24,400.0408333333333,,400.0408333333333
480,2011-12-25,399.87583333333333,,399.87583333333333
480,2011-12-26,400.0829166666667,,400.0829166666667
480,2011-12-27,400.0420833333333,,400.0420833333333
480,2011-12-28,399.87416666666667,,399.87416666666667
480,2011-12-29,400.0841666666667,,400.0841666666667
480,2011-12-30,399.8745833333333,,399.8745833333333
480,2011-12-31,400.0420833333333,,400.0420833333333
480,2012-01-01,400.0829166666667,,400.0829166666667
480,2012-01-02,399.8745833333333,,399.8745833333333
480,2012-01-03,400.0829166666667,,400.0829166666667
480,2012-01-04,400.0420833333333,,400.0420833333333
480,2012-01-05,399.87416666666667,,399.87416666666667
480,2012-01-06,400.0858333333333,,400.0858333333333
480,2012-01-07,400.0395833333334,,400.0395833333334
480,2012-01-08,399.8766666666667,,399.8766666666667
480,2012-01-09,400.03999999999996,,400.03999999999996
480,2012-01-10,400.0420833333333,,400.0420833333333
480,2012-01-11,399.9175,,399.9175
480,2012-01-12,400.0420833333333,,400.0420833333333
480,2012-01-13,400.03999999999996,,400.03999999999996
480,2012-01-14,399.9175,,399.9175
480,2012-01-15,400.0420833333333,,400.0420833333333
480,2012-01-16,400.0425,,400.0425
480,2012-01-17,399.87416666666667,,399.87416666666667
480,2012-01-18,400.0829166666667,,400.0829166666667
480,2012-01-19,400.0420833333333,,400.0420833333333
480,2012-01-20,399.8745833333333,,399.8745833333333
480,2012-01-21,400.0420833333333,,400.0420833333333
480,2012-01-22,399.8745833333333,,399.8745833333333
480,2012-01-23,400.0829166666667,,400.0829166666667
480,2012-01-24,400.0420833333333,,400.0420833333333
480,2012-01-25,400.0420833333333,,400.0420833333333
480,2012-01-26,399.8745833333333,,399.8745833333333
480,2012-01-27,400.0829166666667,,400.0829166666667
480,2012-01-28,308.7079166666667,,308.7079166666667
480,2012-01-29,400.0425,,400.0425
480,2012-01-30,400.0829166666667,,400.0829166666667
480,2012-01-31,399.87416666666667,,399.87416666666667
480,2012-02-01,400.0420833333333,,400.0420833333333
480,2012-02-02,400.0425,,400.0425
480,2012-02-03,399.9175,,399.9175
480,2012-02-04,400.0395833333334,,400.0395833333334
480,2012-02-05,400.0425,,400.0425
480,2012-02-06,399.87416666666667,,399.87416666666667
480,2012-02-07,400.0854166666666,,400.0854166666666
480,2012-02-08,399.8745833333333,,399.8745833333333
480,2012-02-09,400.0420833333333,,400.0420833333333
480,2012-02-10,400.0395833333334,,400.0395833333334
480,2012-02-11,399.9175,,399.9175
480,2012-02-12,400.0425,,400.0425
480,2012-02-13,365.33375,,365.33375
480,2012-02-14,400.0395833333334,,400.0395833333334
480,2012-02-15,400.0854166666666,,400.0854166666666
480,2012-02-16,399.8745833333333,,399.8745833333333
480,2012-02-17,400.0420833333333,,400.0420833333333
480,2012-02-18,399.87416666666667,,399.87416666666667
480,2012-02-19,399.9166666666667,,399.9166666666667
480,2012-02-20,400.2083333333333,,400.2083333333333
480,2012-02-21,399.87916666666666,,399.87916666666666
480,2012-02-22,400.03749999999997,,400.03749999999997
480,2012-02-23,399.9166666666667,,399.9166666666667
480,2012-02-24,400.0416666666667,,400.0416666666667
480,2012-02-25,399.875,,399.875
480,2012-02-26,400.0416666666667,,400.0416666666667
480,2012-02-27,400.0833333333333,,400.0833333333333
480,2012-02-28,396.9583333333333,,396.9583333333333
480,2012-02-29,399.87916666666666,,399.87916666666666
480,2012-03-01,400.03749999999997,,400.03749999999997
480,2012-03-02,399.9166666666667,,399.9166666666667
480,2012-03-03,400.0416666666667,,400.0416666666667
480,2012-03-04,400.04583333333335,,400.04583333333335
480,2012-03-05,399.87083333333334,,399.87083333333334
480,2012-03-06,400.0833333333333,,400.0833333333333
480,2012-03-07,400.0416666666667,,400.0416666666667
480,2012-03-08,399.875,,399.875
480,2012-03-09,400.0416666666667,,400.0416666666667
480,2012-03-10,400.0833333333333,,400.0833333333333
480,2012-03-11,399.875,,399.875
480,2012-03-12,400.0416666666667,,400.0416666666667
480,2012-03-13,400.0416666666667,,400.0416666666667
480,2012-03-14,399.9166666666667,,399.9166666666667
480,2012-03-15,400.0416666666667,,400.0416666666667
480,2012-03-16,399.875,,399.875
480,2012-03-17,400.0416666666667,,400.0416666666667
480,2012-03-18,400.0833333333333,,400.0833333333333
480,2012-03-19,400.0416666666667,,400.0416666666667
480,2012-03-20,399.875,,399.875
480,2012-03-21,400.0416666666667,,400.0416666666667
480,2012-03-22,165.37083333333334,,165.37083333333334
480,2012-03-23,0.0,,0.0
480,2012-03-24,0.0,,0.0
480,2012-03-25,0.0,,0.0
480,2012-03-26,0.0,,0.0
480,2012-03-27,0.0,,0.0
480,2012-03-28,0.0,,0.0
480,2012-03-29,0.0,,0.0
480,2012-03-30,277.25416666666666,,277.25416666666666
480,2012-03-31,400.08750000000003,,400.08750000000003
480,2012-04-01,400.03749999999997,,400.03749999999997
480,2012-04-02,399.875,,399.875
480,2012-04-03,394.75,,394.75
480,2012-04-04,400.0416666666667,,400.0416666666667
480,2012-04-05,399.875,,399.875
480,2012-04-06,400.0416666666667,,400.0416666666667
480,2012-04-07,400.0833333333333,,400.0833333333333
480,2012-04-08,399.875,,399.875
480,2012-04-09,400.0416666666667,,400.0416666666667
480,2012-04-10,400.0416666666667,,400.0416666666667
480,2012-04-11,400.08750000000003,,400.08750000000003
480,2012-04-12,399.87083333333334,,399.87083333333334
480,2012-04-13,400.0416666666667,,400.0416666666667
480,2012-04-14,399.875,,399.875
480,2012-04-15,400.0833333333333,,400.0833333333333
480,2012-04-16,400.0416666666667,,400.0416666666667
480,2012-04-17,399.875,,399.875
480,2012-04-18,400.0416666666667,,400.0416666666667
480,2012-04-19,399.9166666666667,,399.9166666666667
480,2012-04-20,400.03749999999997,,400.03749999999997
480,2012-04-21,400.04583333333335,,400.04583333333335
480,2012-04-22,399.87083333333334,,399.87083333333334
480,2012-04-23,400.08750000000003,,400.08750000000003
480,2012-04-24,399.875,,399.875
480,2012-04-25,400.0416666666667,,400.0416666666667
480,2012-04-26,400.03749999999997,,400.03749999999997
480,2012-04-27,400.04583333333335,,400.04583333333335
480,2012-04-28,399.9166666666667,,399.9166666666667
480,2012-04-29,400.0416666666667,,400.0416666666667
480,2012-04-30,399.875,,399.875
480,2012-05-01,400.0416666666667,,400.0416666666667
480,2012-05-02,400.03749999999997,,400.03749999999997
480,2012-05-03,400.08750000000003,,400.08750000000003
480,2012-05-04,399.875,,399.875
480,2012-05-05,400.0416666666667,,400.0416666666667
480,2012-05-06,399.875,,399.875
480,2012-05-07,400.0833333333333,,400.0833333333333
480,2012-05-08,400.0416666666667,,400.0416666666667
480,2012-05-09,400.0416666666667,,400.0416666666667
480,2012-05-10,399.875,,399.875
480,2012-05-11,400.0833333333333,,400.0833333333333
480,2012-05-12,399.7083333333333,,399.7083333333333
480,2012-05-13,400.03749999999997,,400.03749999999997
480,2012-05-14,400.04583333333335,,400.04583333333335
480,2012-05-15,400.07916666666665,,400.07916666666665
480,2012-05-16,400.04583333333335,,400.04583333333335
480,2012-05-17,400.0416666666667,,400.0416666666667
480,2012-05-18,399.875,,399.875
480,2012-05-19,400.0416666666667,,400.0416666666667
480,2012-05-20,399.9166666666667,,399.9166666666667
480,2012-05-21,400.03749999999997,,400.03749999999997
480,2012-05-22,400.04583333333335,,400.04583333333335
480,2012-05-23,399.87083333333334,,399.87083333333334
480,2012-05-24,400.08750000000003,,400.08750000000003
480,2012-05-25,400.03749999999997,,400.03749999999997
480,2012-05-26,399.87916666666666,,399.87916666666666
480,2012-05-27,400.2083333333333,,400.2083333333333
480,2012-05-28,399.58750000000003,,399.58750000000003
480,2012-05-29,400.20416666666665,,400.20416666666665
480,2012-05-30,385.875,,385.875
480,2012-05-31,379.5416666666667,,379.5416666666667
480,2012-06-01,382.37916666666666,,382.37916666666666
480,2012-06-02,382.20416666666665,,382.20416666666665
480,2012-06-03,382.54583333333335,,382.54583333333335
480,2012-06-04,382.3333333333333,,382.3333333333333
480,2012-06-05,399.5833333333333,,399.5833333333333
480,2012-06-06,399.7083333333333,,399.7083333333333
480,2012-06-07,400.54583333333335,,400.54583333333335
480,2012-06-08,400.0416666666667,,400.0416666666667
480,2012-06-09,399.92083333333335,,399.92083333333335
480,2012-06-10,400.03749999999997,,400.03749999999997
480,2012-06-11,400.0416666666667,,400.0416666666667
480,2012-06-12,399.875,,399.875
480,2012-06-13,400.07916666666665,,400.07916666666665
480,2012-06-14,399.71250000000003,,399.71250000000003
480,2012-06-15,325.12083333333334,,325.12083333333334
480,2012-06-16,0.0,,0.0
480,2012-06-17,0.0,,0.0
480,2012-06-18,0.0,,0.0
480,2012-06-19,0.0,,0.0
480,2012-06-20,0.0,,0.0
480,2012-06-21,0.0,,0.0
480,2012-06-22,0.0,,0.0
480,2012-06-23,0.0,,0.0
480,2012-06-24,0.0,,0.0
480,2012-06-25,0.0,,0.0
480,2012-06-26,255.29166666666666,,255.29166666666666
480,2012-06-27,0.0,,0.0
480,2012-06-28,0.0,,0.0
480,2012-06-29,0.0,,0.0
480,2012-06-30,0.0,,0.0
480,2012-07-01,0.0,,0.0
480,2012-07-02,296.9583333333333,,296.9583333333333
480,2012-07-03,189.4125,,189.4125
480,2012-07-04,0.0,,0.0
480,2012-07-05,0.0,,0.0
480,2012-07-06,0.0,,0.0
480,2012-07-07,0.0,,0.0
480,2012-07-08,0.0,,0.0
480,2012-07-09,0.0,,0.0
480,2012-07-10,0.0,,0.0
480,2012-07-11,296.62083333333334,,296.62083333333334
480,2012-07-12,127.16666666666667,,127.16666666666667
480,2012-07-13,0.0,,0.0
480,2012-07-14,0.0,,0.0
480,2012-07-15,0.0,,0.0
480,2012-07-16,0.0,,0.0
480,2012-07-17,0.0,,0.0
480,2012-07-18,276.99583333333334,,276.99583333333334
480,2012-07-19,400.04583333333335,,400.04583333333335
480,2012-07-20,400.075,,400.075
480,2012-07-21,399.8833333333334,,399.8833333333334
480,2012-07-22,400.0333333333333,,400.0333333333333
480,2012-07-23,399.8833333333334,,399.8833333333334
480,2012-07-24,400.075,,400.075
480,2012-07-25,399.8833333333334,,399.8833333333334
480,2012-07-26,400.0333333333333,,400.0333333333333
480,2012-07-27,400.04583333333335,,400.04583333333335
480,2012-07-28,399.92083333333335,,399.92083333333335
480,2012-07-29,400.0333333333333,,400.0333333333333
480,2012-07-30,400.04583333333335,,400.04583333333335
480,2012-07-31,399.87083333333334,,399.87083333333334
480,2012-08-01,400.25,,400.25
480,2012-08-02,399.8833333333334,,399.8833333333334
480,2012-08-03,400.0333333333333,,400.0333333333333
480,2012-08-04,399.8833333333334,,399.8833333333334
480,2012-08-05,400.0833333333333,,400.0833333333333
480,2012-08-06,399.45416666666665,,399.45416666666665
480,2012-08-07,292.74583333333334,,292.74583333333334
480,2012-08-08,0.0,,0.0
480,2012-08-09,0.0,,0.0
480,2012-08-10,294.17083333333335,,294.17083333333335
480,2012-08-11,400.0833333333333,,400.0833333333333
480,2012-08-12,399.87083333333334,,399.87083333333334
480,2012-08-13,125.175,,125.175
480,2012-08-14,0.0,,0.0
480,2012-08-15,0.0,,0.0
480,2012-08-16,0.0,,0.0
480,2012-08-17,0.0,,0.0
480,2012-08-18,0.0,,0.0
480,2012-08-19,0.0,,0.0
480,2012-08-20,295.37083333333334,,295.37083333333334
480,2012-08-21,185.4125,,185.4125
480,2012-08-22,0.0,,0.0
480,2012-08-23,0.0,,0.0
480,2012-08-24,0.0,,0.0
480,2012-08-25,0.0,,0.0
480,2012-08-26,0.0,,0.0
480,2012-08-27,0.0,,0.0
480,2012-08-28,0.0,,0.0
480,2012-08-29,220.7541666666667,,220.7541666666667
480,2012-08-30,0.0,,0.0
480,2012-08-31,0.0,,0.0
480,2012-09-01,0.0,,0.0
480,2012-09-02,0.0,,0.0
480,2012-09-03,0.0,,0.0
480,2012-09-04,0.0,,0.0
480,2012-09-05,0.0,,0.0
480,2012-09-06,0.0,,0.0
480,2012-09-07,293.71250000000003,,293.71250000000003
480,2012-09-08,400.075,,400.075
480,2012-09-09,399.87916666666666,,399.87916666666666
480,2012-09-10,400.03749999999997,,400.03749999999997
480,2012-09-11,400.04583333333335,,400.04583333333335
480,2012-09-12,399.92083333333335,,399.92083333333335
480,2012-09-13,400.0333333333333,,400.0333333333333
480,2012-09-14,400.04583333333335,,400.04583333333335
480,2012-09-15,399.87083333333334,,399.87083333333334
480,2012-09-16,399.925,,399.925
480,2012-09-17,400.0333333333333,,400.0333333333333
480,2012-09-18,400.04583333333335,,400.04583333333335
480,2012-09-19,400.0416666666667,,400.0416666666667
480,2012-09-20,399.91249999999997,,399.91249999999997
480,2012-09-21,399.8833333333334,,399.8833333333334
480,2012-09-22,400.0333333333333,,400.0333333333333
480,2012-09-23,355.6333333333334,,355.6333333333334
480,2012-09-24,351.5416666666667,,351.5416666666667
480,2012-09-25,400.075,,400.075
480,2012-09-26,400.04583333333335,,400.04583333333335
480,2012-09-27,399.87083333333334,,399.87083333333334
480,2012-09-28,400.04583333333335,,400.04583333333335
480,2012-09-29,400.0833333333333,,400.0833333333333
480,2012-09-30,399.875,,399.875
480,2012-10-01,400.0416666666667,,400.0416666666667
480,2012-10-02,400.04583333333335,,400.04583333333335
480,2012-10-03,399.91249999999997,,399.91249999999997
480,2012-10-04,400.04583333333335,,400.04583333333335
480,2012-10-05,400.0333333333333,,400.0333333333333
480,2012-10-06,399.8833333333334,,399.8833333333334
480,2012-10-07,400.0333333333333,,400.0333333333333
480,2012-10-08,399.925,,399.925
480,2012-10-09,400.0333333333333,,400.0333333333333
480,2012-10-10,400.04583333333335,,400.04583333333335
480,2012-10-11,399.87083333333334,,399.87083333333334
480,2012-10-12,400.0833333333333,,400.0833333333333
480,2012-10-13,400.04583333333335,,400.04583333333335
480,2012-10-14,400.125,,400.125
480,2012-10-15,400.04583333333335,,400.04583333333335
480,2012-10-16,400.625,,400.625
480,2012-10-17,399.6166666666666,,399.6166666666666
480,2012-10-18,399.62916666666666,,399.62916666666666
480,2012-10-19,400.125,,400.125
480,2012-10-20,400.2083333333333,,400.2083333333333
480,2012-10-21,400.37083333333334,,400.37083333333334
480,2012-10-22,400.00416666666666,,400.00416666666666
480,2012-10-23,399.6666666666667,,399.6666666666667
480,2012-10-24,399.875,,399.875
480,2012-10-25,400.66249999999997,,400.66249999999997
480,2012-10-26,399.58750000000003,,399.58750000000003
480,2012-10-27,400.04583333333335,,400.04583333333335
480,2012-10-28,400.4083333333333,,400.4083333333333
480,2012-10-29,387.1666666666667,,387.1666666666667
480,2012-10-30,400.3,,400.3
480,2012-10-31,399.7916666666667,,399.7916666666667
480,2012-11-01,399.7083333333333,,399.7083333333333
480,2012-11-02,400.37083333333334,,400.37083333333334
480,2012-11-03,399.91249999999997,,399.91249999999997
480,2012-11-04,400.2166666666667,,400.2166666666667
480,2012-11-05,398.4083333333333,,398.4083333333333
480,2012-11-06,348.5,,348.5
480,2012-11-07,364.7166666666667,,364.7166666666667
480,2012-11-08,400.125,,400.125
480,2012-11-09,399.82916666666665,,399.82916666666665
480,2012-11-10,400.04583333333335,,400.04583333333335
480,2012-11-11,399.6166666666666,,399.6166666666666
480,2012-11-12,400.00416666666666,,400.00416666666666
480,2012-11-13,400.32916666666665,,400.32916666666665
480,2012-11-14,400.12916666666666,,400.12916666666666
480,2012-11-15,400.00416666666666,,400.00416666666666
480,2012-11-16,401.0416666666667,,401.0416666666667
480,2012-11-17,399.91249999999997,,399.91249999999997
480,2012-11-18,399.78749999999997,,399.78749999999997
480,2012-11-19,399.75,,399.75
480,2012-11-20,400.04583333333335,,400.04583333333335
480,2012-11-21,400.37083333333334,,400.37083333333334
480,2012-11-22,399.96250000000003,,399.96250000000003
480,2012-11-23,400.5833333333333,,400.5833333333333
480,2012-11-24,400.50416666666666,,400.50416666666666
480,2012-11-25,399.41249999999997,,399.41249999999997
480,2012-11-26,399.99583333333334,,399.99583333333334
480,2012-11-27,399.8416666666667,,399.8416666666667
480,2012-11-28,399.91249999999997,,399.91249999999997
480,2012-11-29,399.96250000000003,,399.96250000000003
480,2012-11-30,400.3666666666666,,400.3666666666666
480,2012-12-01,399.7083333333333,,399.7083333333333
480,2012-12-02,400.46250000000003,,400.46250000000003
480,2012-12-03,399.3333333333333,,399.3333333333333
480,2012-12-04,400.125,,400.125
480,2012-12-05,400.37083333333334,,400.37083333333334
480,2012-12-06,400.42083333333335,,400.42083333333335
480,2012-12-07,400.25,,400.25
480,2012-12-08,400.125,,400.125
480,2012-12-09,399.25,,399.25
480,2012-12-10,399.67083333333335,,399.67083333333335
480,2012-12-11,400.32916666666665,,400.32916666666665
480,2012-12-12,399.96250000000003,,399.96250000000003
480,2012-12-13,400.4916666666666,,400.4916666666666
480,2012-12-14,400.12916666666666,,400.12916666666666
480,2012-12-15,399.04583333333335,,399.04583333333335
480,2012-12-16,400.575,,400.575
480,2012-12-17,400.2166666666667,,400.2166666666667
480,2012-12-18,399.7,,399.7
480,2012-12-19,399.87916666666666,,399.87916666666666
480,2012-12-20,399.99583333333334,,399.99583333333334
480,2012-12-21,400.00416666666666,,400.00416666666666
480,2012-12-22,400.04583333333335,,400.04583333333335
480,2012-12-23,400.5833333333333,,400.5833333333333
480,2012-12-24,399.95416666666665,,399.95416666666665
480,2012-12-25,400.42083333333335,,400.42083333333335
480,2012-12-26,400.125,,400.125
480,2012-12-27,399.87083333333334,,399.87083333333334
480,2012-12-28,399.91249999999997,,399.91249999999997
480,2012-12-29,399.7916666666667,,399.7916666666667
480,2012-12-30,400.33750000000003,,400.33750000000003
480,2012-12-31,399.91249999999997,,399.91249999999997
480,2013-01-01,400.2083333333333,,400.2083333333333
480,2013-01-02,399.7083333333333,,399.7083333333333
480,2013-01-03,400.46250000000003,,400.46250000000003
480,2013-01-04,399.67083333333335,,399.67083333333335
480,2013-01-05,400.45,,400.45
480,2013-01-06,399.925,,399.925
480,2013-01-07,400.5416666666667,,400.5416666666667
480,2013-01-08,400.2083333333333,,400.2083333333333
480,2013-01-09,400.08750000000003,,400.08750000000003
480,2013-01-10,399.9916666666666,,399.9916666666666
480,2013-01-11,399.8833333333334,,399.8833333333334
480,2013-01-12,400.32916666666665,,400.32916666666665
480,2013-01-13,400.2083333333333,,400.2083333333333
480,2013-01-14,400.2083333333333,,400.2083333333333
480,2013-01-15,400.0416666666667,,400.0416666666667
480,2013-01-16,400.2083333333333,,400.2083333333333
480,2013-01-17,400.00416666666666,,400.00416666666666
480,2013-01-18,400.41249999999997,,400.41249999999997
480,2013-01-19,400.0833333333333,,400.0833333333333
480,2013-01-20,399.7916666666667,,399.7916666666667
480,2013-01-21,399.375,,399.375
480,2013-01-22,399.75,,399.75
480,2013-01-23,399.96250000000003,,399.96250000000003
480,2013-01-24,400.32916666666665,,400.32916666666665
480,2013-01-25,400.37916666666666,,400.37916666666666
480,2013-01-26,400.25,,400.25
480,2013-01-27,400.37083333333334,,400.37083333333334
480,2013-01-28,399.75,,399.75
480,2013-01-29,144.45833333333334,,144.45833333333334
480,2013-01-30,0.0,,0.0
480,2013-01-31,0.0,,0.0
480,2013-02-01,0.0,,0.0
480,2013-02-02,2.504166666666667,,2.504166666666667
480,2013-02-03,0.0,,0.0
480,2013-02-04,281.3333333333333,,281.3333333333333
480,2013-02-05,400.24583333333334,,400.24583333333334